RYR8593 LICR-LIPE

Flight info

Callsign RYR8593
Flight time 1h 24m
Altitude 18000
Route URCAH T111 BUDIN/N0440F360 DCT MALOG DCT GIKIN DCT SOVAN DCT AMTEL DCT IBRID DCT KUGIX L995 LOMED
Aircraft B38M/M-SADE3FGIJ1LRWY/SB1

Departure

Time 2026-04-23 22:24
Airport Reggio Calabria Airport (LICR)

Arrival

Time 2026-04-23 23:48
Airport Bologna Guglielmo Marconi Airport (LIPE)
Time Latitude Longitude Altitude Speed Heading
2026-04-23 22:06 38.07307 15.65333 52 ft 0 kts 121°
2026-04-23 22:20 38.07304 15.65337 49 ft 0 kts 137°
2026-04-23 22:20 38.07294 15.65334 50 ft 4 kts 204°
2026-04-23 22:20 38.07288 15.65315 50 ft 2 kts 281°
2026-04-23 22:20 38.07305 15.65279 49 ft 9 kts 317°
2026-04-23 22:21 38.07328 15.65203 51 ft 14 kts 253°
2026-04-23 22:21 38.07289 15.65104 50 ft 18 kts 243°
2026-04-23 22:21 38.07318 15.65019 48 ft 13 kts 335°
2026-04-23 22:21 38.07430 15.64954 55 ft 21 kts 335°
2026-04-23 22:22 38.07569 15.64868 59 ft 23 kts 333°
2026-04-23 22:22 38.07713 15.64776 63 ft 23 kts 333°
2026-04-23 22:22 38.07848 15.64690 69 ft 19 kts 334°
2026-04-23 22:22 38.07925 15.64659 73 ft 4 kts 324°
2026-04-23 22:23 38.07927 15.64649 72 ft 1 kts 255°
2026-04-23 22:23 38.07898 15.64637 73 ft 8 kts 174°
2026-04-23 22:23 38.07835 15.64691 62 ft 18 kts 147°
2026-04-23 22:23 38.07485 15.64921 54 ft 101 kts 153°
2026-04-23 22:24 38.06608 15.65484 67 ft 172 kts 154°
2026-04-23 22:24 38.05507 15.66149 951 ft 178 kts 153°
2026-04-23 22:24 38.04395 15.66722 2116 ft 170 kts 163°
2026-04-23 22:24 38.03149 15.66916 2696 ft 198 kts 183°
2026-04-23 22:25 38.01803 15.66242 3235 ft 218 kts 228°
2026-04-23 22:25 38.01145 15.64519 4124 ft 223 kts 268°
2026-04-23 22:25 38.01534 15.62616 5012 ft 230 kts 307°
2026-04-23 22:25 38.02685 15.61205 5944 ft 238 kts 319°
2026-04-23 22:26 38.03839 15.59596 6619 ft 256 kts 309°
2026-04-23 22:26 38.04940 15.57778 7016 ft 263 kts 308°
2026-04-23 22:26 38.06071 15.55977 8132 ft 260 kts 311°
2026-04-23 22:26 38.07260 15.54194 9137 ft 267 kts 311°
2026-04-23 22:27 38.08510 15.52427 10199 ft 270 kts 320°
2026-04-23 22:27 38.10171 15.51431 11138 ft 272 kts 348°
2026-04-23 22:27 38.12085 15.51289 12013 ft 280 kts
2026-04-23 22:27 38.14051 15.51427 12786 ft 287 kts 357°
2026-04-23 22:28 38.16044 15.51369 12929 ft 286 kts 358°
2026-04-23 22:28 38.18033 15.51354 13065 ft 286 kts 358°
2026-04-23 22:28 38.20031 15.51366 13110 ft 286 kts 359°
2026-04-23 22:28 38.22024 15.51390 13471 ft 294 kts 359°
2026-04-23 22:29 38.24122 15.51425 14107 ft 308 kts 359°
2026-04-23 22:29 38.26314 15.51464 14655 ft 320 kts 360°
2026-04-23 22:29 38.28556 15.51509 15480 ft 322 kts 360°
2026-04-23 22:29 38.30808 15.51558 16267 ft 326 kts 360°
2026-04-23 22:30 38.33063 15.51610 17025 ft 329 kts 360°
2026-04-23 22:30 38.35364 15.51663 17798 ft 332 kts
2026-04-23 22:30 38.37692 15.51718 18508 ft 335 kts
2026-04-23 22:30 38.40038 15.51773 19135 ft 338 kts
2026-04-23 22:31 38.42409 15.51830 19750 ft 341 kts
2026-04-23 22:31 38.44762 15.51886 20352 ft 344 kts
2026-04-23 22:31 38.47173 15.51944 20956 ft 347 kts
2026-04-23 22:31 38.49604 15.52002 21554 ft 350 kts
2026-04-23 22:32 38.52053 15.52062 22140 ft 354 kts
2026-04-23 22:32 38.54533 15.52122 22740 ft 357 kts
2026-04-23 22:32 38.57026 15.52178 23316 ft 360 kts 359°
2026-04-23 22:32 38.59511 15.51992 23834 ft 363 kts 355°
2026-04-23 22:33 38.62048 15.51785 24318 ft 366 kts 356°
2026-04-23 22:33 38.64600 15.51592 24822 ft 369 kts 356°
2026-04-23 22:33 38.67180 15.51403 25299 ft 372 kts 356°
2026-04-23 22:33 38.69785 15.51215 25779 ft 375 kts 356°
2026-04-23 22:34 38.72403 15.51028 26267 ft 377 kts 356°
2026-04-23 22:34 38.75001 15.50842 26728 ft 380 kts 356°
2026-04-23 22:34 38.77663 15.50651 27193 ft 383 kts 355°
2026-04-23 22:34 38.80346 15.50459 27638 ft 386 kts 355°
2026-04-23 22:35 38.83011 15.50268 28080 ft 389 kts 355°
2026-04-23 22:35 38.85724 15.50074 28526 ft 391 kts 355°
2026-04-23 22:35 38.88423 15.49568 28935 ft 393 kts 343°
2026-04-23 22:35 38.90961 15.48257 29373 ft 394 kts 332°
2026-04-23 22:36 38.93408 15.46621 29764 ft 397 kts 334°
2026-04-23 22:36 38.95903 15.45081 30163 ft 400 kts 334°
2026-04-23 22:36 38.98429 15.43532 30528 ft 402 kts 334°
2026-04-23 22:36 39.00934 15.42000 30846 ft 404 kts 334°
2026-04-23 22:37 39.03492 15.40438 31198 ft 406 kts 334°
2026-04-23 22:37 39.06055 15.38872 31533 ft 409 kts 334°
2026-04-23 22:37 39.08630 15.37297 31878 ft 411 kts 334°
2026-04-23 22:37 39.11222 15.35710 32211 ft 413 kts 334°
2026-04-23 22:38 39.13793 15.34136 32548 ft 414 kts 334°
2026-04-23 22:38 39.16402 15.32536 32962 ft 414 kts 334°
2026-04-23 22:38 39.19003 15.30938 33434 ft 413 kts 334°
2026-04-23 22:38 39.21593 15.29347 33886 ft 412 kts 334°
2026-04-23 22:39 39.24178 15.27757 34320 ft 410 kts 334°
2026-04-23 22:39 39.26751 15.26173 34683 ft 409 kts 333°
2026-04-23 22:39 39.29295 15.24606 35051 ft 408 kts 333°
2026-04-23 22:39 39.31859 15.23025 35424 ft 407 kts 333°
2026-04-23 22:40 39.34423 15.21443 35785 ft 406 kts 333°
2026-04-23 22:40 39.36946 15.19886 36066 ft 407 kts 333°
2026-04-23 22:41 39.44594 15.15159 36108 ft 403 kts 333°
2026-04-23 22:41 39.49624 15.12044 36108 ft 403 kts 333°
2026-04-23 22:42 39.54682 15.08905 36102 ft 402 kts 333°
2026-04-23 22:42 39.59735 15.05765 36116 ft 402 kts 333°
2026-04-23 22:43 39.64753 15.02642 36114 ft 401 kts 332°
2026-04-23 22:43 39.69796 14.99499 36121 ft 401 kts 332°
2026-04-23 22:44 39.74830 14.96355 36122 ft 401 kts 332°
2026-04-23 22:44 39.79831 14.93227 36124 ft 401 kts 332°
2026-04-23 22:45 39.84858 14.90078 36121 ft 400 kts 332°
2026-04-23 22:45 39.89879 14.86927 36125 ft 400 kts 332°
2026-04-23 22:46 39.94858 14.83798 36127 ft 399 kts 332°
2026-04-23 22:46 39.99873 14.80641 36127 ft 399 kts 332°
2026-04-23 22:47 40.04884 14.77481 36128 ft 399 kts 332°
2026-04-23 22:47 40.09854 14.74342 36133 ft 399 kts 332°
2026-04-23 22:48 40.14862 14.71174 36137 ft 398 kts 331°
2026-04-23 22:48 40.19822 14.68031 36132 ft 398 kts 331°
2026-04-23 22:49 40.24812 14.64864 36135 ft 397 kts 331°
2026-04-23 22:49 40.29758 14.61720 36142 ft 397 kts 331°
2026-04-23 22:50 40.34723 14.58558 36136 ft 396 kts 331°
2026-04-23 22:50 40.39682 14.55395 36139 ft 395 kts 331°
2026-04-23 22:51 40.44606 14.52249 36141 ft 394 kts 331°
2026-04-23 22:51 40.49545 14.49088 36143 ft 394 kts 331°
2026-04-23 22:52 40.54472 14.45930 36143 ft 393 kts 330°
2026-04-23 22:52 40.59364 14.42789 36145 ft 393 kts 330°
2026-04-23 22:53 40.64280 14.39628 36162 ft 391 kts 330°
2026-04-23 22:53 40.69150 14.36490 36155 ft 391 kts 330°
2026-04-23 22:54 40.74051 14.33329 36155 ft 390 kts 330°
2026-04-23 22:54 40.78932 14.30174 36158 ft 390 kts 330°
2026-04-23 22:55 40.83811 14.27016 36158 ft 389 kts 330°
2026-04-23 22:55 40.88644 14.23882 36159 ft 388 kts 330°
2026-04-23 22:56 40.93503 14.20726 36159 ft 388 kts 330°
2026-04-23 22:56 40.98325 14.17589 36158 ft 387 kts 330°
2026-04-23 22:57 41.03139 14.14452 36158 ft 386 kts 330°
2026-04-23 22:57 41.07967 14.11301 36162 ft 385 kts 330°
2026-04-23 22:58 41.12755 14.08171 36157 ft 384 kts 330°
2026-04-23 22:58 41.17544 14.05036 36158 ft 383 kts 330°
2026-04-23 22:59 41.22301 14.01915 36158 ft 381 kts 330°
2026-04-23 22:59 41.27065 13.98786 36163 ft 381 kts 330°
2026-04-23 23:00 41.31226 13.94661 36170 ft 373 kts 311°
2026-04-23 23:00 41.34837 13.89721 36166 ft 375 kts 313°
2026-04-23 23:01 41.38432 13.84707 36169 ft 373 kts 312°
2026-04-23 23:01 41.42002 13.79668 36172 ft 373 kts 312°
2026-04-23 23:02 41.45541 13.74655 36187 ft 372 kts 312°
2026-04-23 23:02 41.49090 13.69617 36181 ft 371 kts 312°
2026-04-23 23:03 41.52617 13.64603 36181 ft 372 kts 312°
2026-04-23 23:03 41.56170 13.59541 36177 ft 372 kts 312°
2026-04-23 23:04 41.59696 13.54511 36181 ft 373 kts 312°
2026-04-23 23:04 41.63252 13.49428 36178 ft 373 kts 312°
2026-04-23 23:05 41.66788 13.44366 36186 ft 374 kts 312°
2026-04-23 23:05 41.69748 13.40121 36186 ft 374 kts 312°
2026-04-23 23:06 41.73308 13.35039 36179 ft 374 kts 315°
2026-04-23 23:06 41.77348 13.30612 36195 ft 375 kts 319°
2026-04-23 23:07 41.81350 13.26086 36196 ft 375 kts 318°
2026-04-23 23:07 41.85314 13.21571 36198 ft 375 kts 318°
2026-04-23 23:08 41.89295 13.17025 36191 ft 376 kts 318°
2026-04-23 23:08 41.93261 13.12489 36190 ft 376 kts 318°
2026-04-23 23:09 41.97250 13.07919 36187 ft 376 kts 318°
2026-04-23 23:09 42.01244 13.03334 36181 ft 377 kts 318°
2026-04-23 23:10 42.05209 12.98776 36182 ft 376 kts 318°
2026-04-23 23:10 42.09214 12.94163 36185 ft 378 kts 318°
2026-04-23 23:11 42.13191 12.89576 36170 ft 378 kts 318°
2026-04-23 23:11 42.17172 12.84975 36173 ft 378 kts 318°
2026-04-23 23:12 42.21169 12.80348 36173 ft 379 kts 318°
2026-04-23 23:12 42.25175 12.75703 36174 ft 379 kts 318°
2026-04-23 23:13 42.29149 12.71087 36175 ft 380 kts 318°
2026-04-23 23:13 42.33170 12.66408 36170 ft 380 kts 318°
2026-04-23 23:14 42.37163 12.61754 36173 ft 381 kts 318°
2026-04-23 23:14 42.41198 12.57042 36173 ft 382 kts 318°
2026-04-23 23:15 42.45201 12.52359 36171 ft 382 kts 318°
2026-04-23 23:15 42.49228 12.47640 36177 ft 383 kts 318°
2026-04-23 23:16 42.53264 12.42902 36177 ft 384 kts 318°
2026-04-23 23:16 42.57286 12.38173 36176 ft 384 kts 318°
2026-04-23 23:17 42.61334 12.33404 36180 ft 385 kts 318°
2026-04-23 23:17 42.65387 12.28620 36181 ft 386 kts 319°
2026-04-23 23:18 42.69442 12.23827 36180 ft 387 kts 319°
2026-04-23 23:18 42.73483 12.19040 36178 ft 387 kts 319°
2026-04-23 23:19 42.77559 12.14204 36182 ft 388 kts 319°
2026-04-23 23:19 42.81619 12.09377 36178 ft 388 kts 319°
2026-04-23 23:20 42.85677 12.04544 36184 ft 389 kts 319°
2026-04-23 23:20 42.89764 11.99669 36187 ft 390 kts 319°
2026-04-23 23:21 42.93847 11.94789 36183 ft 383 kts 319°
2026-04-23 23:21 42.95784 11.92470 36196 ft 367 kts 319°
2026-04-23 23:21 42.97668 11.90214 36174 ft 353 kts 319°
2026-04-23 23:21 42.99495 11.88024 35953 ft 349 kts 319°
2026-04-23 23:22 43.01352 11.85794 35468 ft 357 kts 319°
2026-04-23 23:22 43.03230 11.83540 34983 ft 359 kts 319°
2026-04-23 23:22 43.05098 11.81295 34516 ft 356 kts 319°
2026-04-23 23:22 43.06959 11.79080 34047 ft 354 kts 321°
2026-04-23 23:23 43.09019 11.77353 33702 ft 349 kts 333°
2026-04-23 23:23 43.11138 11.75850 33510 ft 337 kts 325°
2026-04-23 23:23 43.13079 11.74088 33171 ft 332 kts 328°
2026-04-23 23:23 43.15045 11.72461 32730 ft 329 kts 328°
2026-04-23 23:24 43.17007 11.70852 32279 ft 328 kts 328°
2026-04-23 23:24 43.18950 11.69267 31855 ft 332 kts 328°
2026-04-23 23:24 43.20962 11.67632 31426 ft 338 kts 328°
2026-04-23 23:24 43.23001 11.65977 31007 ft 341 kts 328°
2026-04-23 23:25 43.25047 11.64317 30600 ft 340 kts 328°
2026-04-23 23:25 43.27048 11.62692 30182 ft 337 kts 328°
2026-04-23 23:25 43.29058 11.61060 29723 ft 334 kts 328°
2026-04-23 23:25 43.31063 11.59431 29296 ft 333 kts 328°
2026-04-23 23:26 43.33032 11.57829 28909 ft 332 kts 328°
2026-04-23 23:26 43.35023 11.56208 28531 ft 331 kts 328°
2026-04-23 23:26 43.37004 11.54594 28154 ft 331 kts 328°
2026-04-23 23:26 43.38983 11.52981 27771 ft 330 kts 328°
2026-04-23 23:27 43.40966 11.51362 27402 ft 330 kts 328°
2026-04-23 23:27 43.42939 11.49751 27034 ft 329 kts 328°
2026-04-23 23:27 43.44891 11.48156 26676 ft 334 kts 328°
2026-04-23 23:27 43.46930 11.46487 26251 ft 348 kts 328°
2026-04-23 23:28 43.49062 11.44741 25855 ft 359 kts 329°
2026-04-23 23:28 43.51220 11.42973 25484 ft 363 kts 329°
2026-04-23 23:28 43.53403 11.41182 25094 ft 366 kts 329°
2026-04-23 23:28 43.55598 11.39381 24689 ft 366 kts 329°
2026-04-23 23:29 43.57790 11.37581 24307 ft 366 kts 329°
2026-04-23 23:29 43.59951 11.35805 23943 ft 364 kts 329°
2026-04-23 23:29 43.62121 11.34020 23522 ft 360 kts 329°
2026-04-23 23:29 43.64275 11.32247 23059 ft 357 kts 329°
2026-04-23 23:30 43.66378 11.30513 22414 ft 355 kts 330°
2026-04-23 23:30 43.68508 11.28757 21892 ft 355 kts 330°
2026-04-23 23:30 43.70637 11.27005 21386 ft 355 kts 332°
2026-04-23 23:30 43.72921 11.25752 20862 ft 353 kts 349°
2026-04-23 23:31 43.75358 11.25424 20366 ft 352 kts 357°
2026-04-23 23:31 43.77817 11.25155 19856 ft 353 kts 356°
2026-04-23 23:31 43.80244 11.24870 19378 ft 354 kts 356°
2026-04-23 23:31 43.82701 11.24575 18886 ft 354 kts 356°
2026-04-23 23:32 43.85164 11.24276 18402 ft 355 kts 356°
2026-04-23 23:32 43.87627 11.23976 17868 ft 354 kts 356°
2026-04-23 23:32 43.90077 11.23677 17365 ft 354 kts 356°
2026-04-23 23:32 43.92538 11.23377 16864 ft 353 kts 356°
2026-04-23 23:33 43.94949 11.23082 16379 ft 352 kts 356°
2026-04-23 23:33 43.97390 11.22784 15889 ft 352 kts 356°
2026-04-23 23:33 43.99825 11.22486 15417 ft 351 kts 356°
2026-04-23 23:33 44.02254 11.22189 14954 ft 349 kts 356°
2026-04-23 23:34 44.04678 11.21893 14493 ft 348 kts 356°
2026-04-23 23:34 44.07093 11.21597 14045 ft 347 kts 356°
2026-04-23 23:34 44.09499 11.21302 13552 ft 346 kts 356°
2026-04-23 23:34 44.11863 11.21012 13056 ft 345 kts 356°
2026-04-23 23:35 44.14258 11.20718 12534 ft 344 kts 356°
2026-04-23 23:35 44.16654 11.20424 12030 ft 344 kts 356°
2026-04-23 23:35 44.19033 11.20131 11521 ft 343 kts 356°
2026-04-23 23:35 44.21414 11.19839 11003 ft 341 kts 357°
2026-04-23 23:36 44.23774 11.19548 10513 ft 340 kts 357°
2026-04-23 23:36 44.26128 11.19257 10005 ft 339 kts 357°
2026-04-23 23:36 44.28449 11.18971 9482 ft 338 kts 356°
2026-04-23 23:36 44.30774 11.18684 9236 ft 329 kts 356°
2026-04-23 23:37 44.33002 11.18410 9223 ft 313 kts 356°
2026-04-23 23:37 44.35102 11.18583 9207 ft 294 kts 18°
2026-04-23 23:37 44.36948 11.19639 9200 ft 279 kts 23°
2026-04-23 23:37 44.38692 11.20602 9195 ft 267 kts 22°
2026-04-23 23:38 44.40407 11.21556 9076 ft 263 kts 22°
2026-04-23 23:38 44.42176 11.22170 8847 ft 263 kts
2026-04-23 23:38 44.43952 11.21593 8614 ft 266 kts 334°
2026-04-23 23:38 44.45373 11.19916 8326 ft 271 kts 308°
2026-04-23 23:39 44.46297 11.17607 8038 ft 272 kts 299°
2026-04-23 23:39 44.47176 11.15252 7652 ft 274 kts 300°
2026-04-23 23:39 44.48059 11.12877 7258 ft 275 kts 299°
2026-04-23 23:39 44.48920 11.10535 6881 ft 272 kts 298°
2026-04-23 23:40 44.49770 11.08173 6495 ft 270 kts 298°
2026-04-23 23:40 44.50608 11.05836 6104 ft 268 kts 298°
2026-04-23 23:40 44.51449 11.03489 5706 ft 270 kts 298°
2026-04-23 23:40 44.52285 11.01155 5331 ft 271 kts 297°
2026-04-23 23:41 44.53131 10.98792 5083 ft 267 kts 297°
2026-04-23 23:41 44.53942 10.96523 5069 ft 250 kts 297°
2026-04-23 23:41 44.54700 10.94396 5075 ft 236 kts 297°
2026-04-23 23:41 44.55463 10.92460 5074 ft 221 kts 309°
2026-04-23 23:42 44.56663 10.91212 4909 ft 214 kts 339°
2026-04-23 23:42 44.58127 10.90983 4661 ft 213 kts
2026-04-23 23:42 44.59512 10.91631 4392 ft 213 kts 22°
2026-04-23 23:42 44.60882 10.92518 3978 ft 220 kts 23°
2026-04-23 23:43 44.62295 10.93457 3538 ft 228 kts 24°
2026-04-23 23:43 44.63686 10.94602 3066 ft 235 kts 42°
2026-04-23 23:43 44.64546 10.96499 2883 ft 229 kts 71°
2026-04-23 23:43 44.64630 10.98637 2749 ft 219 kts 102°
2026-04-23 23:44 44.63986 11.00545 2632 ft 216 kts 124°
2026-04-23 23:44 44.63163 11.02332 2578 ft 217 kts 121°
2026-04-23 23:44 44.62428 11.04173 2533 ft 216 kts 118°
2026-04-23 23:44 44.61734 11.06049 2523 ft 216 kts 117°
2026-04-23 23:45 44.61067 11.07907 2518 ft 216 kts 117°
2026-04-23 23:45 44.60390 11.09795 2510 ft 215 kts 116°
2026-04-23 23:45 44.59718 11.11668 2500 ft 211 kts 117°
2026-04-23 23:45 44.59070 11.13475 2345 ft 205 kts 117°
2026-04-23 23:46 44.58438 11.15237 2077 ft 204 kts 117°
2026-04-23 23:46 44.57802 11.17011 1818 ft 203 kts 117°
2026-04-23 23:46 44.57178 11.18750 1535 ft 195 kts 117°
2026-04-23 23:46 44.56587 11.20399 1264 ft 183 kts 118°
2026-04-23 23:47 44.56034 11.21940 1020 ft 169 kts 118°
2026-04-23 23:47 44.55517 11.23376 783 ft 162 kts 119°
2026-04-23 23:47 44.55027 11.24746 600 ft 150 kts 119°
2026-04-23 23:47 44.54576 11.26001 419 ft 140 kts 119°
2026-04-23 23:48 44.54145 11.27216 243 ft 138 kts 120°
2026-04-23 23:48 44.53718 11.28406 134 ft 128 kts 120°
2026-04-23 23:48 44.53379 11.29321 133 ft 73 kts 116°
2026-04-23 23:48 44.53237 11.29619 133 ft 15 kts 165°
2026-04-23 23:49 44.53124 11.29713 133 ft 12 kts 148°
2026-04-23 23:49 44.53053 11.29770 133 ft 6 kts 172°
2026-04-23 23:49 44.53037 11.29766 133 ft 3 kts 184°
2026-04-23 23:50 44.53026 11.29771 133 ft 3 kts 161°
2026-04-23 23:50 44.52996 11.29782 133 ft 5 kts 182°
2026-04-23 23:50 44.52982 11.29740 133 ft 6 kts 284°
2026-04-23 23:50 44.52988 11.29722 133 ft 3 kts 297°
2026-04-23 23:51 44.53002 11.29685 133 ft 6 kts 297°
2026-04-23 23:51 44.53024 11.29624 133 ft 4 kts 297°
2026-04-23 23:51 44.53023 11.29600 133 ft 2 kts 229°
2026-04-23 23:51 44.53003 11.29583 133 ft 2 kts 210°
2026-04-23 23:52 44.52986 11.29571 133 ft 0 kts 207°
2026-04-23 23:52 44.52985 11.29570 133 ft 0 kts 207°